| time (UTC) | temp F | wind direction | speed MPH | gust MPH | rain 1hr in | rain 24hr in | rain mn in | humidity % | barometer mb |
| 20260507010521 | 49 | 183 | 3.0 | 15.0 | 0.00 | 0.00 | 0.00 | 77 | 1009.2 |
| 20260507005529 | 50 | 125 | 2.0 | 8.0 | 0.00 | 0.00 | 0.00 | 77 | 1009.2 |
| 20260507004629 | 50 | 193 | 5.0 | 11.0 | 0.00 | 0.00 | 0.00 | 77 | 1009.1 |
| 20260507003522 | 50 | 143 | 4.0 | 12.0 | 0.00 | 0.00 | 0.00 | 77 | 1009.0 |
| 20260507002522 | 50 | 180 | 2.0 | 9.0 | 0.00 | 0.00 | 0.00 | 77 | 1009.0 |
| 20260507001526 | 50 | 355 | 3.0 | 9.0 | 0.00 | 0.00 | 0.00 | 77 | 1008.9 |
| 20260507000525 | 50 | 141 | 4.0 | 9.0 | 0.00 | 0.00 | 0.00 | 76 | 1008.8 |
| 20260506235522 | 51 | 182 | 2.0 | 11.0 | 0.00 | 0.00 | 0.00 | 75 | 1008.6 |
| 20260506234530 | 51 | 149 | 5.0 | 17.0 | 0.00 | 0.00 | 0.00 | 75 | 1008.6 |
| 20260506233520 | 51 | 122 | 5.0 | 15.0 | 0.00 | 0.00 | 0.00 | 74 | 1008.5 |
| 20260506232528 | 51 | 167 | 6.0 | 15.0 | 0.00 | 0.00 | 0.00 | 73 | 1008.4 |
| 20260506231536 | 52 | 147 | 1.0 | 8.0 | 0.00 | 0.00 | 0.00 | 73 | 1008.3 |
| 20260506230525 | 52 | 170 | 8.0 | 24.0 | 0.00 | 0.00 | 0.00 | 72 | 1008.3 |
| 20260506225521 | 52 | 162 | 11.0 | 15.0 | 0.00 | 0.00 | 0.00 | 72 | 1008.3 |
| 20260506224523 | 52 | 118 | 5.0 | 11.0 | 0.00 | 0.00 | 0.00 | 72 | 1008.4 |
| 20260506223520 | 52 | 114 | 8.0 | 14.0 | 0.00 | 0.00 | 0.00 | 71 | 1008.4 |
| 20260506222520 | 53 | 199 | 4.0 | 11.0 | 0.00 | 0.00 | 0.00 | 70 | 1008.4 |
| 20260506221528 | 53 | 94 | 3.0 | 9.0 | 0.00 | 0.00 | 0.00 | 70 | 1008.3 |
| 20260506220536 | 53 | 80 | 2.0 | 11.0 | 0.00 | 0.00 | 0.00 | 69 | 1008.2 |
| 20260506215526 | 53 | 210 | 6.0 | 15.0 | 0.00 | 0.00 | 0.00 | 69 | 1008.2 |
| 20260506214533 | 53 | 128 | 5.0 | 11.0 | 0.00 | 0.00 | 0.00 | 69 | 1008.2 |
| 20260506213524 | 54 | 123 | 6.0 | 12.0 | 0.00 | 0.00 | 0.00 | 68 | 1008.2 |
| 20260506212532 | 54 | 161 | 7.0 | 14.0 | 0.00 | 0.00 | 0.00 | 68 | 1008.2 |
| 20260506211520 | 54 | 189 | 9.0 | 20.0 | 0.00 | 0.00 | 0.00 | 66 | 1008.2 |
| 20260506210523 | 55 | 151 | 7.0 | 14.0 | 0.00 | 0.00 | 0.00 | 67 | 1008.2 |
| 20260506205533 | 55 | 175 | 5.0 | 11.0 | 0.00 | 0.00 | 0.00 | 65 | 1008.1 |
| 20260506204526 | 55 | 161 | 6.0 | 11.0 | 0.00 | 0.00 | 0.00 | 65 | 1008.1 |
| 20260506203527 | 55 | 200 | 4.0 | 11.0 | 0.00 | 0.00 | 0.00 | 65 | 1007.9 |
| 20260506202531 | 56 | 213 | 9.0 | 14.0 | 0.00 | 0.00 | 0.00 | 64 | 1008.0 |
| 20260506201521 | 55 | 200 | 9.0 | 18.0 | 0.00 | 0.00 | 0.00 | 66 | 1008.1 |
| 20260506200523 | 55 | 140 | 7.0 | 17.0 | 0.00 | 0.00 | 0.00 | 65 | 1008.4 |
| 20260506195529 | 55 | 177 | 7.0 | 17.0 | 0.00 | 0.00 | 0.00 | 65 | 1008.5 |
| 20260506194541 | 55 | 178 | 4.0 | 12.0 | 0.00 | 0.00 | 0.00 | 65 | 1008.5 |
| 20260506193528 | 56 | 173 | 7.0 | 15.0 | 0.00 | 0.00 | 0.00 | 64 | 1008.7 |
| 20260506192524 | 56 | 195 | 10.0 | 17.0 | 0.00 | 0.00 | 0.00 | 64 | 1008.7 |
| 20260506191524 | 57 | 206 | 4.0 | 14.0 | 0.00 | 0.00 | 0.00 | 65 | 1008.8 |
| 20260506185522 | 54 | 148 | 6.0 | 14.0 | 0.00 | 0.00 | 0.00 | 68 | 1008.8 |
| 20260506184530 | 54 | 196 | 4.0 | 14.0 | 0.00 | 0.00 | 0.00 | 68 | 1008.9 |
| 20260506183528 | 53 | 217 | 5.0 | 12.0 | 0.00 | 0.00 | 0.00 | 70 | 1009.0 |
| 20260506182547 | 52 | 214 | 5.0 | 14.0 | 0.00 | 0.00 | 0.00 | 71 | 1009.1 |
| 20260506181523 | 52 | 87 | 6.0 | 15.0 | 0.00 | 0.00 | 0.00 | 71 | 1009.1 |
| 20260506180524 | 52 | 165 | 2.0 | 11.0 | 0.00 | 0.00 | 0.00 | 73 | 1009.2 |
| 20260506175652 | 51 | 165 | 4.0 | 8.0 | 0.00 | 0.00 | 0.00 | 74 | 1009.3 |
| 20260506174521 | 50 | 146 | 7.0 | 14.0 | 0.00 | 0.00 | 0.00 | 75 | 1009.3 |
| 20260506173529 | 50 | 125 | 5.0 | 11.0 | 0.00 | 0.00 | 0.00 | 76 | 1009.3 |
| 20260506172521 | 49 | 182 | 4.0 | 8.0 | 0.00 | 0.00 | 0.00 | 77 | 1009.3 |
| 20260506171527 | 48 | 177 | 8.0 | 12.0 | 0.00 | 0.04 | 0.00 | 79 | 1009.4 |
| 20260506170531 | 48 | 191 | 5.0 | 17.0 | 0.00 | 0.08 | 0.00 | 79 | 1009.2 |
| 20260506165525 | 49 | 179 | 5.0 | 14.0 | 0.00 | 0.08 | 0.00 | 79 | 1009.3 |
| 20260506164520 | 48 | 190 | 3.0 | 12.0 | 0.00 | 0.08 | 0.00 | 80 | 1009.5 |
| 20260506163522 | 48 | 222 | 7.0 | 14.0 | 0.00 | 0.08 | 0.00 | 80 | 1009.4 |
| 20260506162519 | 48 | 183 | 6.0 | 11.0 | 0.00 | 0.08 | 0.00 | 80 | 1009.5 |
| 20260506161519 | 49 | 244 | 6.0 | 12.0 | 0.00 | 0.08 | 0.00 | 79 | 1009.6 |
| 20260506160527 | 50 | 166 | 4.0 | 9.0 | 0.00 | 0.08 | 0.00 | 77 | 1009.6 |
| 20260506155522 | 50 | 198 | 3.0 | 9.0 | 0.00 | 0.08 | 0.00 | 77 | 1009.5 |
| 20260506154521 | 49 | 193 | 7.0 | 14.0 | 0.00 | 0.08 | 0.00 | 77 | 1009.7 |
| 20260506153532 | 49 | 188 | 3.0 | 8.0 | 0.00 | 0.08 | 0.00 | 76 | 1009.7 |
| 20260506152525 | 49 | 186 | 6.0 | 14.0 | 0.00 | 0.08 | 0.00 | 76 | 1009.8 |
| 20260506151526 | 50 | 212 | 1.0 | 5.0 | 0.00 | 0.08 | 0.00 | 77 | 1009.8 |
| 20260506150519 | 49 | 246 | 4.0 | 6.0 | 0.00 | 0.08 | 0.00 | 77 | 1009.9 |
| 20260506145627 | 49 | 79 | 2.0 | 6.0 | 0.00 | 0.08 | 0.00 | 78 | 1010.0 |
| 20260506144523 | 48 | 202 | 7.0 | 12.0 | 0.00 | 0.08 | 0.00 | 79 | 1010.0 |
| 20260506143526 | 48 | 178 | 7.0 | 14.0 | 0.00 | 0.08 | 0.00 | 79 | 1010.0 |
| 20260506142628 | 47 | 140 | 4.0 | 14.0 | 0.00 | 0.08 | 0.00 | 81 | 1009.8 |
| 20260506141522 | 47 | 178 | 8.0 | 15.0 | 0.00 | 0.08 | 0.00 | 81 | 1009.8 |
| 20260506140532 | 46 | 204 | 3.0 | 11.0 | 0.00 | 0.08 | 0.00 | 81 | 1009.7 |
| 20260506135520 | 46 | 179 | 9.0 | 15.0 | 0.00 | 0.08 | 0.00 | 82 | 1009.6 |
| 20260506134524 | 46 | 171 | 4.0 | 12.0 | 0.00 | 0.08 | 0.00 | 82 | 1009.7 |
| 20260506133536 | 46 | 210 | 7.0 | 12.0 | 0.00 | 0.08 | 0.00 | 82 | 1009.7 |
| 20260506132542 | 46 | 210 | 3.0 | 6.0 | 0.00 | 0.08 | 0.00 | 82 | 1009.6 |
| 20260506131529 | 46 | 210 | 7.0 | 14.0 | 0.00 | 0.08 | 0.00 | 85 | 1009.5 |
| 20260506130528 | 47 | 213 | 6.0 | 11.0 | 0.00 | 0.08 | 0.00 | 83 | 1009.6 |
| 20260506125523 | 47 | 178 | 4.0 | 11.0 | 0.00 | 0.08 | 0.00 | 82 | 1009.9 |
| 20260506124520 | 47 | 193 | 3.0 | 8.0 | 0.00 | 0.08 | 0.00 | 81 | 1009.8 |
| 20260506123522 | 47 | 156 | 4.0 | 11.0 | 0.00 | 0.08 | 0.00 | 81 | 1009.7 |
| 20260506122530 | 47 | 153 | 6.0 | 12.0 | 0.00 | 0.08 | 0.00 | 80 | 1009.7 |
| 20260506121525 | 47 | 151 | 6.0 | 14.0 | 0.00 | 0.08 | 0.00 | 80 | 1009.6 |
| 20260506120519 | 48 | 165 | 7.0 | 12.0 | 0.00 | 0.08 | 0.00 | 81 | 1009.6 |
| 20260506115523 | 48 | 180 | 0.0 | 3.0 | 0.00 | 0.08 | 0.00 | 81 | 1009.7 |
| 20260506114525 | 47 | 180 | 0.0 | 3.0 | 0.00 | 0.08 | 0.00 | 82 | 1009.6 |
| 20260506113522 | 47 | 0.0 | 0.0 | 0.00 | 0.08 | 0.00 | 83 | 1009.6 | |
| 20260506112528 | 47 | 0.0 | 0.0 | 0.00 | 0.08 | 0.00 | 83 | 1009.4 | |
| 20260506111530 | 47 | 0.0 | 0.0 | 0.00 | 0.08 | 0.00 | 83 | 1009.4 | |
| 20260506110520 | 47 | 0.0 | 0.0 | 0.00 | 0.08 | 0.00 | 83 | 1009.4 | |
| 20260506105534 | 46 | 0.0 | 0.0 | 0.00 | 0.08 | 0.00 | 83 | 1009.4 | |
| 20260506104521 | 46 | 0.0 | 0.0 | 0.00 | 0.08 | 0.00 | 83 | 1009.3 | |
| 20260506103531 | 46 | 0.0 | 0.0 | 0.00 | 0.08 | 0.00 | 82 | 1009.3 | |
| 20260506102523 | 46 | 0.0 | 0.0 | 0.00 | 0.08 | 0.00 | 82 | 1009.4 | |
| 20260506101524 | 46 | 0.0 | 0.0 | 0.00 | 0.08 | 0.00 | 81 | 1009.6 | |
| 20260506100522 | 46 | 0.0 | 0.0 | 0.00 | 0.08 | 0.00 | 80 | 1009.6 | |
| 20260506095627 | 46 | 0.0 | 0.0 | 0.00 | 0.08 | 0.00 | 80 | 1009.7 | |
| 20260506094534 | 46 | 0.0 | 0.0 | 0.00 | 0.08 | 0.00 | 80 | 1009.4 | |
| 20260506093624 | 47 | 0.0 | 0.0 | 0.00 | 0.08 | 0.00 | 78 | 1009.2 | |
| 20260506092647 | 47 | 0.0 | 0.0 | 0.00 | 0.08 | 0.00 | 75 | 1009.2 | |
| 20260506091524 | 47 | 202 | 2.0 | 9.0 | 0.00 | 0.08 | 0.00 | 73 | 1009.1 |
| 20260506090522 | 47 | 169 | 4.0 | 11.0 | 0.00 | 0.08 | 0.00 | 72 | 1009.2 |
| 20260506084529 | 47 | 0.0 | 0.0 | 0.00 | 0.08 | 0.00 | 71 | 1009.3 | |
| 20260506083539 | 47 | 0.0 | 0.0 | 0.00 | 0.08 | 0.00 | 70 | 1009.4 | |
| 20260506082524 | 47 | 0.0 | 0.0 | 0.00 | 0.08 | 0.00 | 70 | 1009.4 | |
| 20260506081533 | 47 | 0.0 | 0.0 | 0.00 | 0.08 | 0.00 | 70 | 1009.3 | |
| 20260506080523 | 47 | 158 | 1.0 | 5.0 | 0.00 | 0.08 | 0.00 | 70 | 1009.0 |
| 20260506073527 | 48 | 0.0 | 0.0 | 0.00 | 0.08 | 0.00 | 70 | 1009.2 | |
| 20260506072523 | 48 | 68 | 1.0 | 6.0 | 0.00 | 0.08 | 0.00 | 71 | 1009.3 |
| 20260506071525 | 48 | 0.0 | 0.0 | 0.00 | 0.08 | 0.00 | 70 | 1009.4 | |
| 20260506070525 | 48 | 0.0 | 0.0 | 0.00 | 0.08 | 0.00 | 69 | 1009.4 | |
| 20260506061532 | 48 | 0.0 | 0.0 | 0.00 | 0.08 | 0.00 | 67 | 1009.3 | |
| 20260506060525 | 48 | 0.0 | 0.0 | 0.00 | 0.08 | 0.00 | 65 | 1009.3 | |
| 20260506050526 | 49 | 338 | 1.0 | 6.0 | 0.00 | 0.08 | 0.00 | 63 | 1009.3 |
| 20260506044536 | 49 | 68 | 1.0 | 8.0 | 0.00 | 0.08 | 0.00 | 63 | 1008.8 |
| 20260506043524 | 49 | 23 | 0.0 | 6.0 | 0.00 | 0.08 | 0.00 | 63 | 1009.0 |
| 20260506042531 | 50 | 136 | 2.0 | 6.0 | 0.00 | 0.08 | 0.00 | 64 | 1009.0 |
| 20260506041621 | 50 | 293 | 1.0 | 5.0 | 0.00 | 0.08 | 0.00 | 64 | 1008.9 |
| 20260506040521 | 50 | 113 | 2.0 | 9.0 | 0.00 | 0.08 | 0.00 | 63 | 1008.8 |
| 20260506035524 | 50 | 90 | 1.0 | 5.0 | 0.00 | 0.08 | 0.08 | 63 | 1008.7 |
| 20260506034647 | 50 | 113 | 1.0 | 8.0 | 0.00 | 0.08 | 0.08 | 62 | 1008.7 |
| 20260506033525 | 50 | 0.0 | 8.0 | 0.00 | 0.08 | 0.08 | 61 | 1008.7 | |
| 20260506032707 | 50 | 93 | 2.0 | 6.0 | 0.00 | 0.08 | 0.08 | 61 | 1008.7 |
| 20260506031525 | 51 | 159 | 1.0 | 6.0 | 0.00 | 0.08 | 0.08 | 59 | 1008.6 |
| 20260506030521 | 51 | 86 | 1.0 | 5.0 | 0.00 | 0.08 | 0.08 | 58 | 1008.4 |
| 20260506025533 | 51 | 225 | 1.0 | 6.0 | 0.00 | 0.08 | 0.08 | 58 | 1008.2 |
| 20260506024519 | 51 | 201 | 5.0 | 14.0 | 0.00 | 0.08 | 0.08 | 58 | 1008.1 |
| 20260506023527 | 51 | 45 | 2.0 | 8.0 | 0.00 | 0.08 | 0.08 | 59 | 1008.0 |
| 20260506022535 | 51 | 336 | 4.0 | 11.0 | 0.00 | 0.08 | 0.08 | 59 | 1008.1 |
| 20260506021521 | 51 | 0.0 | 0.0 | 0.00 | 0.08 | 0.08 | 58 | 1007.9 | |
| 20260506020633 | 52 | 64 | 2.0 | 6.0 | 0.00 | 0.08 | 0.08 | 59 | 1008.0 |
| 20260506015622 | 52 | 141 | 1.0 | 8.0 | 0.00 | 0.08 | 0.08 | 59 | 1007.9 |
| 20260506014519 | 52 | 332 | 2.0 | 8.0 | 0.00 | 0.08 | 0.08 | 59 | 1007.9 |
| 20260506013520 | 52 | 53 | 5.0 | 12.0 | 0.00 | 0.08 | 0.08 | 59 | 1007.7 |
| 20260506012527 | 53 | 71 | 3.0 | 8.0 | 0.00 | 0.08 | 0.08 | 60 | 1007.6 |
| 20260506011536 | 53 | 119 | 4.0 | 17.0 | 0.00 | 0.08 | 0.08 | 60 | 1007.5 |